This is the latest recevied weather packets stored in our database for station/object CA3DJL-10. If no packets are shown the sender has not sent any weather packets the latest 10 day(s).
| Time | Temp. | Humidity | Pressure | Rain* | Wind** | Luminosity | Snow |
|---|---|---|---|---|---|---|---|
| 1777446101 | 18.33° C | 33% | 986 hPa | - | - | - | - |
| 1777445200 | 18.33° C | 33% | 986 hPa | - | - | - | - |
| 1777444299 | 18.33° C | 33% | 986 hPa | - | - | - | - |
| 1777443398 | 18.89° C | 32% | 986 hPa | - | - | - | - |
| 1777442497 | 18.89° C | 32% | 986 hPa | - | - | - | - |
| 1777441596 | 18.89° C | 31% | 987 hPa | - | - | - | - |
| 1777440695 | 18.89° C | 32% | 987 hPa | - | - | - | - |
| 1777439794 | 19.44° C | 32% | 987 hPa | - | - | - | - |
| 1777438892 | 19.44° C | 32% | 987 hPa | - | - | - | - |
| 1777437991 | 19.44° C | 36% | 987 hPa | - | - | - | - |
| 1777437090 | 20° C | 30% | 987 hPa | - | - | - | - |
| 1777436189 | 20.56° C | 30% | 987 hPa | - | - | - | - |
| 1777435288 | 20.56° C | 30% | 987 hPa | - | - | - | - |
| 1777434387 | 21.11° C | 30% | 987 hPa | - | - | - | - |
| 1777433486 | 21.11° C | 31% | 987 hPa | - | - | - | - |
| 1777432585 | 21.11° C | 31% | 987 hPa | - | - | - | - |
| 1777431684 | 22.22° C | 29% | 987 hPa | - | - | - | - |
| 1777430782 | 22.22° C | 29% | 987 hPa | - | - | - | - |
| 1777429881 | 22.78° C | 28% | 987 hPa | - | - | - | - |
| 1777428980 | 23.33° C | 28% | 987 hPa | - | - | - | - |
| 1777428079 | 23.89° C | 28% | 987 hPa | - | - | - | - |
| 1777427178 | 24.44° C | 27% | 987 hPa | - | - | - | - |
| 1777426277 | 24.44° C | 27% | 987 hPa | - | - | - | - |
| 1777425376 | 25° C | 27% | 987 hPa | - | - | - | - |
| 1777424475 | 25.56° C | 26% | 986 hPa | - | - | - | - |
* Rain since midnight (hover to see other rain measurements)
** Current wind speed in m/s (hover to see current wind gust speed)